Weather History for Paynesville, MN

Change the Weather History Date:

Saturday, November 12, 2011

  Actual Average (KLJF) Record (KLJF)
Temperature  
Mean Temperature 45 °F -  
Max Temperature 62 °F 38 °F 66 °F (2001)
Min Temperature 28 °F 22 °F -3 °F (1966)
Degree Days  
Heating Degree Days 20    
Moisture  
Dew Point 25 °F    
Average Humidity 48    
Maximum Humidity 80    
Minimum Humidity 20    
Precipitation  
Precipitation 0.00 in - - ()
Sea Level Pressure  
Sea Level Pressure 29.40 in    
Wind  
Wind Speed 4 mph (SSE)    
Max Wind Speed 16 mph    
Max Gust Speed 25 mph    
Visibility 10 miles    
Events      
Averages and records for this station are not official NWS values.
T = Trace of Precipitation, MM = Missing Value Source: NWS Daily Summary

Daily Weather History Graph

Daily Weather History Graph

Search for Another Location

Airport:

Trip Planner

Search our weather history database for the weather conditions in past years. The results will help you decide how hot, cold, wet, or windy it might be!

Date:

Astronomy

Nov. 12, 2011 Rise Set
Actual Time 7:13 AM CST 4:52 PM CST
Civil Twilight 6:41 AM CST 5:24 PM CST
Nautical Twilight 6:05 AM CST 5:59 PM CST
Astronomical Twilight 5:31 AM CST 6:34 PM CST
Moon 6:03 PM CST (11/12) 9:01 AM CST (11/12)
Length of Visible Light 10h 42m
Length of Day
9h 39m
Full, 97% of the Moon is Illuminated
Nov 12
Full
Nov 18
Last Quarter
Nov 25
New
Dec 2
First Quarter
Dec 10
Full

Hourly Weather History & Observations

Time (CST) Temp. Windchill Dew Point Humidity Pressure Visibility Wind Dir Wind Speed Gust Speed Precip Events Conditions
12:12 AM 28.4 °F - 22.1 °F 77% 29.54 in 10.0 mi Calm Calm - N/A   Clear
12:32 AM 36.7 °F - 25.3 °F 64% 29.54 in 10.0 mi Calm Calm - N/A   Clear
12:52 AM 34.3 °F - 23.7 °F 65% 29.54 in 10.0 mi Calm Calm - N/A   Clear
1:12 AM 38.3 °F - 23.7 °F 56% 29.54 in 10.0 mi Calm Calm - N/A   Clear
1:32 AM 35.4 °F - 23.2 °F 61% 29.54 in 10.0 mi Calm Calm - N/A   Clear
1:52 AM 36.5 °F 32.7 °F 23.4 °F 59% 29.54 in 10.0 mi SSW 4.6 mph - N/A   Clear
2:12 AM 34.5 °F 31.6 °F 22.8 °F 62% 29.54 in 10.0 mi SSW 3.5 mph - N/A   Clear
2:32 AM 36.7 °F - 23.4 °F 59% 29.53 in 10.0 mi Calm Calm - N/A   Clear
2:52 AM 37.8 °F - 23.0 °F 55% 29.53 in 10.0 mi Calm Calm - N/A   Clear
3:11 AM 37.2 °F 34.7 °F 22.8 °F 56% 29.52 in 10.0 mi South 3.5 mph - N/A   Clear
3:32 AM 33.4 °F - 22.3 °F 64% 29.52 in 10.0 mi Calm Calm - N/A   Clear
3:52 AM 32.7 °F - 22.6 °F 66% 29.51 in 10.0 mi Calm Calm - N/A   Clear
4:12 AM 33.8 °F - 24.3 °F 68% 29.51 in 10.0 mi Calm Calm - N/A   Clear
4:32 AM 34.2 °F - 23.2 °F 64% 29.51 in 10.0 mi Calm Calm - N/A   Clear
4:52 AM 34.2 °F - 23.5 °F 65% 29.50 in 10.0 mi Calm Calm - N/A   Clear
5:12 AM 33.8 °F - 24.6 °F 69% 29.50 in 10.0 mi Calm Calm - N/A   Clear
5:32 AM 32.2 °F - 23.5 °F 70% 29.50 in 10.0 mi Calm Calm - N/A   Clear
6:12 AM 28.8 °F - 23.2 °F 80% 29.48 in 10.0 mi Calm Calm - N/A   Clear
6:31 AM 30.6 °F - 23.0 °F 74% 29.48 in 10.0 mi Calm Calm - N/A   Clear
7:12 AM 32.9 °F - 23.5 °F 68% 29.47 in 10.0 mi Calm Calm - N/A   Clear
7:32 AM 33.6 °F 29.4 °F 23.0 °F 65% 29.46 in 10.0 mi SSE 4.6 mph - N/A   Clear
7:52 AM 34.0 °F 31.0 °F 23.2 °F 65% 29.46 in 10.0 mi SSE 3.5 mph - N/A   Clear
8:12 AM 35.2 °F 32.4 °F 23.5 °F 62% 29.46 in 10.0 mi SE 3.5 mph - N/A   Clear
8:32 AM 36.5 °F 31.0 °F 23.4 °F 59% 29.45 in 10.0 mi SSE 6.9 mph - N/A   Clear
9:12 AM 39.2 °F 33.0 °F 21.7 °F 50% 29.46 in 10.0 mi South 9.2 mph - N/A   Clear
9:32 AM 42.1 °F 38.4 °F 22.3 °F 45% 29.45 in 10.0 mi South 5.8 mph - N/A   Clear
9:52 AM 44.8 °F 42.4 °F 22.6 °F 42% 29.45 in 10.0 mi SSE 4.6 mph - N/A   Clear
10:12 AM 47.5 °F - 22.6 °F 38% 29.44 in 10.0 mi SSE 5.8 mph - N/A   Clear
10:32 AM 48.4 °F - 21.4 °F 35% 29.44 in 10.0 mi SSE 6.9 mph - N/A   Clear
10:52 AM 50.0 °F - 20.7 °F 32% 29.43 in 10.0 mi SSE 9.2 mph 16.1 mph N/A   Clear
11:12 AM 50.5 °F - 20.7 °F 31% 29.43 in 10.0 mi South 10.4 mph - N/A   Clear
11:32 AM 53.8 °F - 21.9 °F 29% 29.41 in 10.0 mi SSE 10.4 mph - N/A   Clear
11:52 AM 57.0 °F - 22.3 °F 26% 29.40 in 10.0 mi SSE 10.4 mph - N/A   Clear
12:11 PM 58.5 °F - 22.5 °F 25% 29.40 in 10.0 mi South 10.4 mph - N/A   Clear
12:32 PM 60.8 °F - 21.2 °F 22% 29.38 in 10.0 mi South 11.5 mph - N/A   Clear
12:52 PM 61.7 °F - 20.1 °F 20% 29.37 in 10.0 mi South 15.0 mph 20.7 mph N/A   Clear
1:12 PM 61.3 °F - 20.3 °F 21% 29.36 in 10.0 mi SSE 12.7 mph 19.6 mph N/A   Clear
1:32 PM 60.4 °F - 21.7 °F 23% 29.35 in 10.0 mi SSE 9.2 mph 17.3 mph N/A   Clear
1:52 PM 61.2 °F - 23.2 °F 23% 29.33 in 10.0 mi SSE 15.0 mph 18.4 mph N/A   Clear
2:12 PM 61.2 °F - 23.4 °F 24% 29.32 in 10.0 mi SSE 11.5 mph 18.4 mph N/A   Clear
2:32 PM 62.2 °F - 21.9 °F 21% 29.30 in 10.0 mi SSE 16.1 mph 19.6 mph N/A   Clear
2:52 PM 61.3 °F - 22.1 °F 22% 29.29 in 10.0 mi SSE 11.5 mph 17.3 mph N/A   Clear
3:12 PM 59.9 °F - 23.0 °F 24% 29.28 in 10.0 mi SE 12.7 mph 25.3 mph N/A   Clear
3:32 PM 58.8 °F - 24.6 °F 27% 29.28 in 10.0 mi SSE 11.5 mph - N/A   Clear
3:52 PM 58.3 °F - 25.2 °F 28% 29.28 in 10.0 mi SSE 12.7 mph 19.6 mph N/A   Clear
4:12 PM 57.2 °F - 25.7 °F 30% 29.26 in 10.0 mi SSE 13.8 mph 17.3 mph N/A   Clear
4:32 PM 55.8 °F - 26.4 °F 32% 29.26 in 10.0 mi SSE 11.5 mph - N/A   Clear
4:52 PM 54.3 °F - 26.8 °F 35% 29.25 in 10.0 mi SSE 12.7 mph 18.4 mph N/A   Clear
5:12 PM 52.9 °F - 27.9 °F 38% 29.25 in 10.0 mi SSE 12.7 mph 18.4 mph N/A   Clear
5:32 PM 52.0 °F - 29.1 °F 41% 29.26 in 10.0 mi SSE 10.4 mph 16.1 mph N/A   Clear
5:52 PM 51.1 °F - 30.4 °F 45% 29.25 in 10.0 mi SSE 8.1 mph - N/A   Clear
6:12 PM 50.7 °F - 31.6 °F 48% 29.25 in 10.0 mi SSE 6.9 mph - N/A   Clear
6:32 PM 50.2 °F - 32.0 °F 50% 29.24 in 10.0 mi SSE 10.4 mph - N/A   Clear
6:52 PM 50.4 °F - 32.5 °F 50% 29.24 in 10.0 mi SSE 10.4 mph - N/A   Clear
7:32 PM 50.2 °F - 33.3 °F 52% 29.22 in 10.0 mi South 13.8 mph 21.9 mph N/A   Clear
7:52 PM 50.0 °F - 33.8 °F 54% 29.22 in 10.0 mi South 12.7 mph 18.4 mph N/A   Clear
8:12 PM 49.5 °F - 34.0 °F 55% 29.21 in 10.0 mi South 12.7 mph 21.9 mph N/A   Clear
8:32 PM 48.4 °F - 34.0 °F 58% 29.21 in 10.0 mi South 12.7 mph 18.4 mph N/A   Clear
8:52 PM 47.7 °F - 34.0 °F 59% 29.20 in 10.0 mi South 11.5 mph 17.3 mph N/A   Clear
9:32 PM 46.2 °F 41.7 °F 34.0 °F 62% 29.18 in 10.0 mi South 9.2 mph 16.1 mph N/A   Clear
9:52 PM 45.3 °F 40.6 °F 33.8 °F 64% 29.18 in 10.0 mi South 9.2 mph - N/A   Clear
10:12 PM 44.6 °F 40.2 °F 33.8 °F 66% 29.18 in 10.0 mi South 8.1 mph - N/A   Clear
10:32 PM 43.7 °F 38.6 °F 33.8 °F 68% 29.16 in 10.0 mi South 9.2 mph - N/A   Clear
10:52 PM 43.3 °F 38.6 °F 33.8 °F 69% 29.16 in 10.0 mi South 8.1 mph - N/A   Clear
11:12 PM 43.5 °F 38.3 °F 33.8 °F 69% 29.15 in 10.0 mi South 9.2 mph - N/A   Clear
11:32 PM 43.5 °F 38.3 °F 33.8 °F 69% 29.16 in 10.0 mi SSW 9.2 mph - N/A   Clear
11:52 PM 43.0 °F 39.5 °F 33.4 °F 69% 29.15 in 10.0 mi SSW 5.8 mph - N/A   Clear